Content
SEND FEEDBACK

Daily
Averages
Monthly
Summary
United States of America

LENOIR, NORTH CAROLINA


Home > North America > United States > North Carolina
Elevation: 1130 feet     Latitude: 35 55N     Longitude: 081 32W

WEATHER
 
SELECT A DAY
Number of Records: 200,675;   Date Range: 1/1/95 - 7/23/14
 
SHARE

PRINT THIS DATA

[ ← Previous Day ]
WEATHER ALMANAC - JANUARY 31, 2013
[ Next Day → ]
[ °C ]   °F
Weather ElementAverageHighLow
Temperature39.8 °F46.9 °F (1:53 am)34 °F (10:53 pm)
Dewpoint20.9 °F39.9 °F (1:53 am)16 °F (3:53 pm)
Humidity47.8 %77 % (1:53 am)34 % (2:53 pm)
Barometer29.84 in29.98 in (7:53 pm)29.51 in (1:53 am)
Wind Speed11.2 mph19.6 mph (12:53 pm)
Wind Gust32.2 mph (2:53 pm)
Weather ElementAverage
Visibility10 mi
Wind DirectionWSW (251.3 °)

Weather ElementTotal
Precipitation0.02 in
Heating Degree Days24.6 (Base 65)
Averaged from 23 records on January 31, 2013
WEATHER CONDITIONS BREAKOUT
WIND DIRECTION BREAKOUT
WEATHER BY HOUR - JANUARY 31, 2013
[ °C ]   °F
Local TimeTemperatureDewpointHumidityBarometerVisibilityWind DirectionWind SpeedGust SpeedPrecipitationEventsConditions
1:53 AM46.9 °F39.9 °F77 %29.51 in9.0 miWSW (250°)10.4 mph28.8 mph0.02 inRainLight Rain
2:53 AM44.1 °F32.0 °F63 %29.55 in10.0 miWest (280°)12.7 mph23.0 mph0.00 inPartly Cloudy
3:53 AM42.1 °F28.9 °F60 %29.60 in10.0 miWest (280°)16.1 mph24.2 mphClear
4:53 AM39.9 °F27.0 °F60 %29.66 in10.0 miWNW (300°)16.1 mph25.3 mphClear
5:53 AM37.0 °F21.9 °F54 %29.71 in10.0 miWest (280°)13.8 mph24.2 mphClear
6:53 AM35.1 °F21.9 °F59 %29.76 in10.0 miWest (270°)11.5 mph19.6 mphPartly Cloudy
7:53 AM35.1 °F18.0 °F50 %29.80 in10.0 miWNW (290°)17.3 mph25.3 mphClear
8:53 AM37.9 °F19.9 °F48 %29.83 in10.0 miWest (270°)9.2 mph20.7 mphClear
9:53 AM39.0 °F19.9 °F46 %29.86 in10.0 miWNW (290°)12.7 mph23.0 mphClear
10:53 AM42.1 °F19.9 °F41 %29.87 in10.0 miWest (260°)17.3 mph21.9 mphClear
11:53 AM41.0 °F18.0 °F40 %29.88 in10.0 miNW (320°)10.4 mph26.5 mphClear
12:53 PM44.1 °F18.0 °F35 %29.87 in10.0 miWNW (290°)19.6 mph24.2 mphClear
1:53 PM45.0 °F19.0 °F36 %29.88 in10.0 miNW (310°)12.7 mph24.2 mphClear
2:53 PM44.1 °F17.1 °F34 %29.91 in10.0 miWNW (290°)17.3 mph32.2 mphClear
3:53 PM43.0 °F16.0 °F34 %29.94 in10.0 miWest (280°)13.8 mph25.3 mphClear
4:53 PM42.1 °F16.0 °F35 %29.94 in10.0 miWNW (290°)8.1 mph17.3 mphClear
5:53 PM39.9 °F17.1 °F40 %29.95 in10.0 miWest (270°)9.2 mphClear
6:53 PM39.0 °F17.1 °F41 %29.96 in10.0 miWest (270°)8.1 mphClear
7:53 PM39.0 °F18.0 °F43 %29.98 in10.0 miWest (270°)10.4 mphClear
8:53 PM37.0 °F18.0 °F46 %29.96 in10.0 miSW (220°)4.6 mphClear
9:53 PM35.1 °F18.0 °F50 %29.97 in10.0 miCalmClear
10:53 PM34.0 °F19.0 °F54 %29.96 in10.0 miCalmClear
11:53 PM34.0 °F19.0 °F54 %29.95 in10.0 miSSW (200°)5.8 mphClear
Hourly data recorded from KHKY, located miles away from Lenoir, North Carolina







STORIES FROM OUR PARTNERS